This demonstration page uses our WeatherBlox Daily Observations layout. Learn more.

Left ArrowRight Arrow

38.80484, -77.04692

Hourly Observations for August 9, 2022

Temp ( °F °C ) Dew Point ( °F °C ) Humidity (%) Winds ( mph kmh ) Pressure ( in mb ) Visibility ( mi km ) Precip ( " mm )
12:52 am 00:52 Partly Cloudy 82 27.8 76 24.4 82 82 SW 7 11 29.98 1015 10 16 0.00 0.00
1:52 am 01:52 Mostly Cloudy 81 27.2 73 22.8 77 77 SW 3 6 29.98 1015 10 16 0.00 0.00
2:52 am 02:52 Mostly Cloudy 81 27.2 72 22.2 74 74 SSW 7 11 29.98 1015 10 16 0.00 0.00
3:52 am 03:52 Partly Cloudy 80 26.7 72 22.2 76 76 SSW 7 11 29.97 1015 10 16 0.00 0.00
4:52 am 04:52 Mostly Clear 78 25.6 71 21.7 79 79 S 5 7 29.98 1015 10 16 0.00 0.00
5:52 am 05:52 Mostly Clear 77 25 72 22.2 84 84 SSW 7 11 29.98 1015 10 16 0.00 0.00
6:52 am 06:52 Mostly Sunny 78 25.6 71 21.7 79 79 SSW 5 7 29.99 1016 10 16 0.00 0.00
7:52 am 07:52 Mostly Sunny 80 26.7 72 22.2 76 76 SSW 8 13 30.01 1016 10 16 0.00 0.00
8:52 am 08:52 Sunny 83 28.3 73 22.8 72 72 SSW 8 13 30.01 1016 10 16 0.00 0.00
9:52 am 09:52 Sunny 85 29.4 76 24.4 75 75 S 9 15 30.01 1016 10 16 0.00 0.00
10:52 am 10:52 Mostly Sunny 87 30.6 76 24.4 70 70 S 12 19 30.01 1016 10 16 0.00 0.00
11:52 am 11:52 Mostly Sunny 93 33.9 73 22.8 52 52 W 9 15 30.00 1016 10 16 0.00 0.00
12:52 pm 12:52 Mostly Sunny 92 33.3 75 23.9 58 58 SSE 7 11 29.99 1016 10 16 0.00 0.00
1:52 pm 13:52 Partly Cloudy 94 34.4 73 22.8 51 51 S 9 15 29.98 1015 10 16 0.00 0.00
2:52 pm 14:52 Partly Cloudy 96 35.6 72 22.2 46 46 VRB 3 6 29.96 1015 10 16 0.00 0.00
3:52 pm 15:52 Mostly Cloudy 94 34.4 73 22.8 51 51 SSW 13 20 29.95 1014 10 16 0.00 0.00
4:52 pm 16:52 Mostly Cloudy 95 35 74 23.3 51 51 SSW 10 17 29.93 1014 10 16 0.00 0.00
5:52 pm 17:52 Mostly Cloudy 94 34.4 73 22.8 51 51 SSW 12 19 29.93 1014 10 16 0.00 0.00
6:52 pm 18:52 Mostly Cloudy 91 32.8 73 22.8 56 56 S 9 15 29.93 1014 10 16 0.00 0.00
7:52 pm 19:52 Mostly Cloudy 91 32.8 74 23.3 58 58 SW 12 19 29.96 1014 10 16 0.00 0.00
8:52 pm 20:52 Mostly Cloudy 88 31.1 68 20 52 52 NW 14 22 29.99 1016 10 16 0.00 0.00
9:32 pm 21:32 Cloudy with Nearby Thunderstorms 82 27.8 70 21.1 67 67 N 8 13 30.01 1016 10 16 0.01 0.13
9:45 pm 21:45 Cloudy 81 27.2 71 21.7 72 72 N 8 13 30.01 1016 10 16 0.01 0.13
9:52 pm 21:52 Mostly Cloudy 81 27.2 71 21.7 72 72 N 6 9 30.01 1016 10 16 0.01 0.13
10:52 pm 22:52 Partly Cloudy 82 27.8 71 21.7 69 69 N 8 13 30.01 1016 10 16 0.00 0.00
11:52 pm 23:52 Partly Cloudy 82 27.8 71 21.7 69 69 N 5 7 30.01 1016 10 16 0.00 0.00

Powered by AerisWeather